This demonstration page uses our WeatherBlox Daily Observations layout. Learn more.

Left ArrowRight Arrow

39.01783, -85.05884

Hourly Observations for April 22, 2018

Temp ( °F °C ) Dew Point ( °F °C ) Humidity (%) Winds ( mph kmh ) Pressure ( in mb ) Visibility ( mi km ) Precip ( " mm )
12:52 am 00:52 Cloudy 51 10.6 24 -4.4 35 35 ENE 10 17 30.29 1026 10 16 N/A
1:52 am 01:52 Cloudy 51 10.6 25 -3.9 36 36 NNE 8 13 30.30 1026 10 16 N/A
2:52 am 02:52 Cloudy 50 10 26 -3.3 39 39 ENE 8 13 30.28 1025 10 16 N/A
3:52 am 03:52 Cloudy 50 10 26 -3.3 39 39 ENE 12 19 30.25 1025 10 16 N/A
4:52 am 04:52 Cloudy 50 10 26 -3.3 39 39 ENE 7 11 30.25 1025 10 16 N/A
5:52 am 05:52 Mostly Cloudy 49 9.4 26 -3.3 41 41 ENE 8 13 30.26 1025 10 16 N/A
6:52 am 06:52 Cloudy 48 8.9 27 -2.8 44 44 ENE 8 13 30.27 1025 10 16 N/A
7:52 am 07:52 Cloudy 49 9.4 28 -2.2 44 44 ENE 9 15 30.28 1025 10 16 N/A
8:52 am 08:52 Cloudy 50 10 29 -1.7 44 44 ENE 8 13 30.28 1025 10 16 N/A
9:52 am 09:52 Mostly Cloudy 53 11.7 29 -1.7 40 40 NE 9 15 30.29 1026 10 16 N/A
10:52 am 10:52 Mostly Cloudy 55 12.8 30 -1.1 38 38 ENE 14 22 30.26 1025 10 16 N/A
11:52 am 11:52 Cloudy 58 14.4 30 -1.1 35 35 ENE 13 20 30.26 1025 10 16 N/A
12:52 pm 12:52 Cloudy 60 15.6 28 -2.2 30 30 ENE 15 24 30.24 1024 10 16 N/A
1:52 pm 13:52 Cloudy 64 17.8 28 -2.2 26 26 NE 16 26 30.22 1023 10 16 N/A
2:52 pm 14:52 Cloudy 66 18.9 30 -1.1 26 26 ENE 15 24 30.21 1023 10 16 N/A
3:52 pm 15:52 Cloudy 64 17.8 29 -1.7 27 27 ENE 15 24 30.19 1023 10 16 N/A
4:52 pm 16:52 Cloudy 64 17.8 31 -0.6 29 29 ENE 13 20 30.18 1022 10 16 N/A
5:52 pm 17:52 Cloudy 63 17.2 28 -2.2 27 27 E 13 20 30.16 1021 10 16 N/A
6:52 pm 18:52 Mostly Cloudy 63 17.2 27 -2.8 26 26 ENE 13 20 30.15 1021 10 16 N/A
7:52 pm 19:52 Mostly Cloudy 63 17.2 28 -2.2 27 27 ENE 10 17 30.14 1021 10 16 N/A
8:52 pm 20:52 Mostly Cloudy 62 16.7 26 -3.3 25 25 ENE 10 17 30.14 1021 10 16 N/A
9:52 pm 21:52 Mostly Cloudy 61 16.1 26 -3.3 26 26 ENE 17 28 30.13 1020 10 16 N/A
10:52 pm 22:52 Mostly Cloudy 60 15.6 28 -2.2 30 30 ENE 14 22 30.13 1020 10 16 N/A
11:52 pm 23:52 Mostly Cloudy 58 14.4 30 -1.1 35 35 ENE 15 24 30.11 1020 10 16 N/A

Powered by AerisWeather